Lid_Strength_Index
7 7 7 7 7 7 7 7 9 8 7 6 5 5 5 4 4 5 5 4 4 4 4 3 2 2 2 1 1 1 1 1 1 0 0 0 0 -0 -0 -0 0 -0 -0 -0
8 7 7 8 7 7 7 7 7 7 7 4 4 4 5 5 5 5 5 4 4 4 3 3 3 2 2 1 1 1 1 1 1 1 0 0 0 -0 0 0 -0 -0 -0 -0
9 7 7 9 7 7 6 6 6 8 6 4 4 4 5 5 5 5 4 4 4 4 3 3 2 2 2 1 1 1 1 1 1 1 1 0 -0 0 0 0 -0 -0 -0 -0
9 8 11 7 5 5 6 6 5 5 5 4 4 4 4 3 4 4 4 4 4 3 3 2 2 1 1 1 1 1 1 1 1 0 1 0 0 0 0 -0 -0 -0 -0 -1
10 9 8 7 6 6 7 7 5 5 5 4 4 4 4 3 3 3 3 3 3 2 2 2 2 1 1 2 2 1 2 1 1 0 1 1 1 0 -0 -0 0 -0 -1 -0
9 10 11 7 5 5 5 8 5 5 5 5 5 7 5 4 3 3 3 2 3 2 2 2 2 1 2 2 2 2 1 1 1 0 0 1 0 0 -0 -0 -0 -0 -0 -1
9 10 8 6 6 5 9 9 5 5 5 5 6 5 4 3 3 2 2 3 2 2 2 2 1 1 2 2 2 1 1 1 0 0 0 0 1 0 -0 -0 -0 -1 -1 -1
9 10 11 5 6 8 7 5 5 5 5 5 5 4 3 3 3 3 3 3 2 3 2 2 1 2 2 3 1 1 0 1 1 1 2 1 1 -0 -0 -0 0 0 0 0
8 8 5 5 5 4 4 5 5 4 4 4 4 4 4 4 3 3 3 3 2 2 2 2 1 1 3 2 1 1 1 1 1 2 1 1 0 0 1 0 1 1 2 2
8 5 5 5 4 4 3 4 3 3 3 3 4 4 4 3 3 3 3 3 2 3 3 3 2 2 2 1 1 1 2 2 2 1 1 1 0 1 1 2 1 2 2 3
7 6 5 5 4 4 4 3 3 3 3 3 4 4 4 3 3 3 3 3 2 3 3 3 2 2 2 2 2 2 2 3 2 3 2 1 0 1 2 1 3 3 3 4
8 6 5 5 4 3 4 4 3 4 4 3 3 4 3 3 3 3 4 3 3 3 3 3 2 2 1 1 1 3 3 3 4 4 2 2 2 3 8 7 7 7 8 6
5 4 4 4 3 3 3 4 3 3 3 4 3 3 3 3 3 4 3 3 3 3 3 3 3 2 2 1 2 2 3 3 4 3 2 2 3 2 3 6 7 8 8 8
3 3 4 4 4 3 3 3 4 3 3 3 3 3 3 3 3 4 4 3 3 2 3 2 3 2 2 2 2 3 3 6 3 1 2 2 2 2 3 3 4 3 7 6
3 3 3 3 3 3 3 3 3 4 3 3 3 3 3 4 4 4 3 2 2 2 3 3 3 4 3 3 3 3 4 3 1 1 2 2 1 2 2 3 3 3 2 4
3 3 3 4 4 3 3 3 4 4 3 3 3 3 3 3 3 4 5 4 3 4 6 5 4 5 3 3 3 3 3 3 2 2 3 3 3 3 3 3 3 2 2 2
5 5 4 4 4 4 3 3 3 3 3 3 3 3 3 3 4 4 3 2 2 3 4 5 5 4 3 3 3 3 3 3 4 3 3 3 3 3 3 3 2 2 2 2
4 3 3 3 3 3 3 3 3 3 3 3 3 3 3 3 4 3 2 3 4 5 4 4 4 3 3 2 2 2 2 3 3 4 4 3 4 3 2 2 2 2 2 1
3 3 3 3 2 3 3 3 3 3 2 2 3 3 3 3 3 3 3 4 5 5 4 4 3 3 2 1 1 2 2 3 4 4 3 5 4 2 2 2 1 1 1 1
4 3 3 3 2 2 3 2 2 3 2 2 2 3 3 3 3 4 5 6 4 4 4 4 3 3 1 1 1 2 2 2 4 4 4 3 2 1 0 3 1 0 1 1
4 3 3 3 3 2 2 2 3 3 3 2 3 3 3 3 4 5 5 5 4 4 4 4 2 1 1 1 2 1 2 3 4 4 4 3 2 1 -0 0 0 0 1 1
3 3 3 3 3 3 2 2 2 2 2 2 2 2 3 3 2 3 3 4 3 5 3 2 2 1 2 2 1 2 2 3 4 4 3 1 -0 0 0 0 1 0 0 0
3 3 3 3 3 2 2 2 2 2 3 2 2 2 2 2 2 3 4 1 2 3 1 2 3 3 3 1 1 2 3 4 4 3 1 0 -0 0 0 0 0 0 0 0
3 3 3 2 2 3 3 2 2 2 2 2 2 1 2 3 2 1 1 3 4 3 1 2 3 4 4 1 2 3 3 3 3 2 0 4 0 0 0 0 0 0 -0 0
3 3 2 3 3 3 3 2 2 2 2 2 2 1 1 1 2 1 1 1 5 3 1 4 4 4 2 2 3 3 3 3 2 1 0 -0 0 -0 -0 -0 -0 -0 -0 -0
3 3 3 2 3 2 2 3 3 3 2 3 2 1 1 1 1 1 1 2 1 3 1 2 1 2 2 3 3 3 3 2 2 1 1 -0 -0 -0 -0 -0 -0 -0 -0 -0
2 6 2 3 2 2 2 3 3 3 3 2 2 2 1 1 1 2 3 2 1 1 1 1 1 2 3 3 3 3 2 2 3 0 -0 -0 -0 -0 -0 -0 -0 -1 -1 -1